Location: Newark
(43.0000°N, 1.6781°W)
Time: 23:40:54
(UTC+00:00)

Vanguard 1 Rocket - Pass Details

Date: 26 April 2021
Orbit: 652 x 4224 km, 34.3° (Epoch: 10 May)

Event Time Altitude Azimuth Distance (km) Brightness Sun altitude
Rises 12:39:33 0° 247° (WSW) 5,008 11.5 59.7°
Reaches altitude 10° 12:43:49 10° 240° (WSW) 3,469 10.9 59.5°
Maximum altitude 12:50:47 35° 178° (S) 1,467 9.8 59.0°
Drops below altitude 10° 12:55:21 10° 112° (ESE) 2,244 9.5 58.7°
Sets 12:57:32 0° 102° (ESE) 3,039 10.0 58.5°
